Location: Zagreb
(45.8000°N, 16.0000°E)
Time: 20:49:21
(UTC+01:00)

deb Explorer IX - Pass Details

Date: 06 October 2020
Orbit: 537 x 1106 km, 38.8° (Epoch: 30 October)

Event Time Altitude Azimuth Distance (km) Brightness Sun altitude
Rises 15:46:22 0° 237° (WSW) 3,589 ? 24.7°
Reaches altitude 10° 15:49:23 10° 228° (SW) 2,549 ? 24.3°
Maximum altitude 15:54:40 32° 167° (SSE) 1,329 ? 23.5°
Drops below altitude 10° 15:59:16 10° 105° (ESE) 2,200 ? 22.9°
Sets 16:01:41 0° 95° (E) 3,031 ? 22.5°
